CW2099 Weather Reports


Display with metric or nautical units.
time (UTC)temp
F
wind
direction
speed
MPH
gust
MPH
rain 1hr
in
rain 24hr
in
rain mn
in
humidity
%
barometer
mb
20260502123032 31 223 0.0 1.0 0.00 0.01 0.00 59 1019.1
20260502121524 29 223 0.0 0.0 0.00 0.01 0.00 63 1019.2
20260502114523 26 223 0.0 0.0 0.00 0.01 0.00 64 1019.2
20260502113023 25 223 0.0 1.0 0.00 0.01 0.00 64 1019.2
20260502111521 25 223 0.0 0.0 0.00 0.01 0.00 64 1019.2
20260502110020 25 223 0.0 0.0 0.00 0.01 0.00 63 1019.1
20260502104519 25 223 0.0 0.0 0.00 0.01 0.00 63 1019.2
20260502103016 25 223 0.0 1.0 0.00 0.01 0.00 62 1019.0
20260502101529 25 223 0.0 1.0 0.00 0.01 0.00 61 1019.1
20260502091514 25 223 0.0 0.0 0.00 0.01 0.00 58 1019.2
20260502071507 27 223 0.0 0.0 0.00 0.01 0.00 57 1018.8
20260502070006 27 223 0.0 0.0 0.00 0.01 0.00 55 1018.7
20260502064505 28 223 0.0 0.0 0.00 0.01 0.00 57 1019.0
20260502063010 28 223 0.0 0.0 0.00 0.01 0.00 56 1019.0
20260502061600 28 223 0.0 0.0 0.00 0.01 0.00 57 1018.9
20260502060058 28 223 0.0 0.0 0.00 0.01 0.00 54 1019.1
20260502054557 29 223 0.0 0.0 0.00 0.01 0.00 54 1019.2
20260502053112 29 223 0.0 0.0 0.00 0.01 0.00 54 1018.9
20260502051604 29 223 0.0 0.0 0.00 0.01 0.00 53 1019.2
20260502050049 29 223 0.0 0.0 0.00 0.01 0.01 49 1019.1
20260502044547 29 223 0.0 0.0 0.00 0.01 0.01 47 1018.9
20260502043051 30 223 0.0 1.0 0.00 0.01 0.01 45 1019.1
20260502041604 30 223 0.0 0.0 0.00 0.01 0.01 45 1018.9
20260502040046 30 223 0.0 0.0 0.00 0.01 0.01 45 1019.0
20260502034543 31 223 0.0 0.0 0.00 0.01 0.01 48 1019.0
20260502033056 31 223 0.0 0.0 0.00 0.01 0.01 47 1019.0
20260502031542 32 223 0.0 0.0 0.00 0.01 0.01 47 1019.0
20260502030041 32 223 0.0 1.0 0.00 0.01 0.01 45 1019.1
20260502024541 33 223 0.0 0.0 0.00 0.01 0.01 44 1019.1
20260502023041 33 223 0.0 0.0 0.00 0.01 0.01 43 1019.0
20260502021538 34 223 0.0 0.0 0.00 0.01 0.01 43 1018.9
20260502020037 34 223 0.0 0.0 0.00 0.01 0.01 42 1018.7
20260502014535 35 223 0.0 1.0 0.00 0.01 0.01 41 1018.7
20260502013032 37 223 0.0 2.0 0.00 0.01 0.01 39 1018.5
20260502011530 38 223 0.0 0.0 0.00 0.01 0.01 38 1018.4
20260502010028 38 223 0.0 0.0 0.00 0.01 0.01 39 1018.3
20260502004527 39 226 0.0 0.0 0.00 0.01 0.01 36 1018.2
20260502003026 39 226 0.0 2.0 0.00 0.01 0.01 35 1018.2
20260502001527 40 236 0.0 2.0 0.00 0.01 0.01 39 1017.9
20260502000026 40 238 0.0 2.0 0.00 0.01 0.01 36 1018.1
20260501234526 40 238 0.0 1.0 0.00 0.01 0.01 37 1018.1
20260501233026 39 242 0.0 2.0 0.00 0.01 0.01 37 1018.2
20260501231532 39 255 0.0 3.0 0.00 0.01 0.01 36 1018.3
20260501230025 39 255 0.0 3.0 0.00 0.01 0.01 37 1018.3
20260501224524 39 267 1.0 5.0 0.00 0.01 0.01 38 1018.3
20260501223035 40 258 1.0 3.0 0.00 0.01 0.01 39 1018.4
20260501221526 39 222 1.0 3.0 0.00 0.01 0.01 36 1018.3
20260501220024 39 206 0.0 4.0 0.00 0.01 0.01 36 1018.4
20260501214524 39 232 2.0 5.0 0.00 0.01 0.01 38 1018.2
20260501213021 39 242 0.0 4.0 0.00 0.01 0.01 38 1018.3
20260501211520 39 262 2.0 4.0 0.00 0.01 0.01 39 1018.3
20260501210020 38 237 1.0 3.0 0.00 0.01 0.01 43 1018.3
20260501204523 38 203 1.0 5.0 0.00 0.01 0.01 40 1018.4
20260501203016 38 175 0.0 4.0 0.00 0.01 0.01 45 1018.3
20260501201515 37 166 1.0 6.0 0.00 0.01 0.01 43 1018.0
20260501200014 37 171 2.0 5.0 0.00 0.01 0.01 41 1018.2
20260501194514 38 198 1.0 4.0 0.00 0.01 0.01 41 1018.1
20260501193013 37 242 2.0 4.0 0.00 0.01 0.01 44 1018.1
20260501191514 37 207 2.0 4.0 0.00 0.01 0.01 48 1018.2
20260501190014 37 145 2.0 4.0 0.00 0.01 0.01 42 1018.2
20260501184510 37 187 1.0 4.0 0.00 0.01 0.01 44 1018.0
20260501183010 37 158 1.0 5.0 0.00 0.01 0.01 44 1017.6
20260501181513 38 132 0.0 4.0 0.00 0.01 0.01 42 1017.7
20260501180009 39 197 2.0 4.0 0.00 0.01 0.01 40 1017.6
20260501174506 38 209 2.0 7.0 0.00 0.01 0.01 44 1017.7
20260501173004 37 180 2.0 4.0 0.01 0.01 0.01 46 1017.8
20260501171501 37 166 0.0 6.0 0.01 0.01 0.01 47 1017.8
20260501164557 36 185 1.0 4.0 0.01 0.01 0.01 50 1017.5
20260501163057 35 196 1.0 6.0 0.00 0.00 0.00 55 1017.5
20260501161606 33 191 1.0 3.0 0.00 0.00 0.00 61 1017.5
20260501160100 33 190 1.0 4.0 0.00 0.00 0.00 62 1017.8
20260501154559 34 270 1.0 3.0 0.00 0.00 0.00 63 1017.7
20260501153054 32 111 1.0 3.0 0.00 0.00 0.00 63 1017.8
20260501151554 34 134 1.0 4.0 0.00 0.00 0.00 58 1017.7
20260501150049 35 53 1.0 3.0 0.00 0.00 0.00 51 1017.3
20260501144550 35 176 2.0 4.0 0.00 0.00 0.00 50 1017.2
20260501143105 35 182 1.0 5.0 0.00 0.00 0.00 51 1017.2